| time (UTC) | temp F | wind direction | speed knots | gust knots | rain 1hr in | rain 24hr in | rain mn in | humidity % | barometer mb |
| 20260503204425 | 57 | 284 | 1.7 | 3.5 | 0.00 | 0.00 | 0.00 | 96 | 1035.0 |
| 20260503204414 | 57 | 284 | 1.7 | 3.5 | 0.00 | 0.00 | 0.00 | 96 | 1034.9 |
| 20260503203402 | 57 | 284 | 2.6 | 3.5 | 0.00 | 0.00 | 0.00 | 96 | 1034.9 |
| 20260503202857 | 56 | 284 | 2.6 | 3.5 | 0.00 | 0.00 | 0.00 | 96 | 1034.9 |
| 20260503202352 | 56 | 284 | 2.6 | 3.5 | 0.00 | 0.00 | 0.00 | 96 | 1034.9 |
| 20260503202127 | 56 | 284 | 1.7 | 3.5 | 0.00 | 0.00 | 0.00 | 96 | 1034.9 |
| 20260503201347 | 56 | 284 | 2.6 | 3.5 | 0.00 | 0.00 | 0.00 | 97 | 1034.9 |
| 20260503200843 | 56 | 284 | 1.7 | 3.5 | 0.00 | 0.00 | 0.00 | 97 | 1034.9 |
| 20260503200343 | 56 | 284 | 1.7 | 3.5 | 0.00 | 0.00 | 0.00 | 96 | 1034.8 |
| 20260503195842 | 56 | 284 | 0.9 | 2.6 | 0.00 | 0.00 | 0.00 | 96 | 1034.8 |
| 20260503195338 | 56 | 284 | 1.7 | 2.6 | 0.00 | 0.00 | 0.00 | 97 | 1034.8 |
| 20260503194833 | 56 | 284 | 0.9 | 1.7 | 0.00 | 0.00 | 0.00 | 96 | 1034.8 |
| 20260503194335 | 56 | 284 | 1.7 | 1.7 | 0.00 | 0.00 | 0.00 | 96 | 1034.8 |
| 20260503194111 | 56 | 284 | 0.9 | 1.7 | 0.00 | 0.00 | 0.00 | 96 | 1034.6 |
| 20260503194108 | 56 | 284 | 0.9 | 1.7 | 0.00 | 0.00 | 0.00 | 96 | 1034.8 |
| 20260503192824 | 56 | 284 | 0.9 | 1.7 | 0.00 | 0.00 | 0.00 | 96 | 1034.7 |
| 20260503192318 | 56 | 284 | 0.9 | 2.6 | 0.00 | 0.00 | 0.00 | 96 | 1034.5 |
| 20260503192051 | 56 | 284 | 0.9 | 2.6 | 0.00 | 0.00 | 0.00 | 96 | 1034.5 |
| 20260503191304 | 56 | 284 | 0.9 | 2.6 | 0.00 | 0.00 | 0.00 | 96 | 1034.5 |
| 20260503191028 | 56 | 284 | 0.9 | 1.7 | 0.00 | 0.00 | 0.00 | 96 | 1034.4 |
| 20260503190255 | 56 | 284 | 0.0 | 1.7 | 0.00 | 0.00 | 0.00 | 96 | 1034.4 |
| 20260503185813 | 56 | 284 | 0.0 | 1.7 | 0.00 | 0.00 | 0.00 | 96 | 1034.2 |
| 20260503185805 | 56 | 284 | 0.9 | 1.7 | 0.00 | 0.00 | 0.00 | 96 | 1034.3 |
| 20260503184751 | 56 | 284 | 0.9 | 1.7 | 0.00 | 0.00 | 0.00 | 96 | 1034.2 |
| 20260503184252 | 56 | 284 | 0.9 | 1.7 | 0.00 | 0.00 | 0.00 | 96 | 1034.1 |
| 20260503183751 | 56 | 284 | 0.0 | 1.7 | 0.00 | 0.00 | 0.00 | 96 | 1034.2 |
| 20260503183249 | 56 | 284 | 0.9 | 1.7 | 0.00 | 0.00 | 0.00 | 95 | 1034.0 |
| 20260503182746 | 56 | 284 | 0.9 | 1.7 | 0.00 | 0.00 | 0.00 | 95 | 1034.0 |
| 20260503182248 | 56 | 284 | 0.0 | 1.7 | 0.00 | 0.00 | 0.00 | 95 | 1034.0 |
| 20260503181747 | 56 | 284 | 0.0 | 1.7 | 0.00 | 0.00 | 0.00 | 95 | 1033.9 |
| 20260503181242 | 56 | 284 | 0.9 | 2.6 | 0.00 | 0.00 | 0.00 | 95 | 1033.9 |
| 20260503180745 | 56 | 284 | 0.9 | 2.6 | 0.00 | 0.00 | 0.00 | 96 | 1033.9 |
| 20260503180239 | 56 | 284 | 0.9 | 1.7 | 0.00 | 0.00 | 0.00 | 95 | 1033.9 |
| 20260503175733 | 56 | 284 | 0.0 | 1.7 | 0.00 | 0.00 | 0.00 | 96 | 1033.9 |
| 20260503175234 | 56 | 284 | 0.9 | 1.7 | 0.00 | 0.00 | 0.00 | 96 | 1033.8 |
| 20260503175009 | 56 | 284 | 0.9 | 3.5 | 0.00 | 0.00 | 0.00 | 97 | 1033.8 |
| 20260503174503 | 55 | 284 | 0.9 | 3.5 | 0.00 | 0.00 | 0.00 | 97 | 1033.9 |
| 20260503174000 | 55 | 284 | 0.9 | 2.6 | 0.00 | 0.00 | 0.00 | 97 | 1033.8 |
| 20260503173225 | 55 | 284 | 0.9 | 2.6 | 0.00 | 0.00 | 0.00 | 97 | 1033.8 |
| 20260503172712 | 55 | 284 | 0.0 | 0.0 | 0.00 | 0.00 | 0.00 | 97 | 1033.7 |
| 20260503172208 | 55 | 284 | 0.0 | 0.0 | 0.00 | 0.00 | 0.00 | 97 | 1033.7 |
| 20260503171701 | 55 | 284 | 0.0 | 0.0 | 0.00 | 0.00 | 0.00 | 97 | 1033.7 |
| 20260503171202 | 55 | 284 | 0.0 | 0.0 | 0.00 | 0.00 | 0.00 | 97 | 1033.7 |
| 20260503170704 | 55 | 284 | 0.0 | 0.9 | 0.00 | 0.00 | 0.00 | 97 | 1033.7 |
| 20260503170159 | 55 | 284 | 0.0 | 0.9 | 0.00 | 0.00 | 0.00 | 97 | 1033.7 |
| 20260503160113 | 55 | 284 | 0.0 | 1.7 | 0.00 | 0.00 | 0.00 | 96 | 1033.8 |
| 20260503150536 | 55 | 284 | 0.9 | 3.5 | 0.00 | 0.00 | 0.00 | 96 | 1034.0 |
| 20260503131342 | 55 | 288 | 0.9 | 1.7 | 0.00 | 0.00 | 0.00 | 96 | 1034.7 |
| 20260503130826 | 55 | 288 | 0.9 | 1.7 | 0.00 | 0.00 | 0.00 | 96 | 1034.7 |
| 20260503130320 | 55 | 288 | 0.9 | 1.7 | 0.00 | 0.00 | 0.00 | 96 | 1034.7 |
| 20260503110642 | 55 | 288 | 0.9 | 2.6 | 0.00 | 0.00 | 0.00 | 96 | 1034.9 |
| 20260503110141 | 55 | 288 | 1.7 | 2.6 | 0.00 | 0.00 | 0.00 | 96 | 1034.8 |
| 20260503081421 | 54 | 288 | 0.9 | 1.7 | 0.00 | 0.00 | 0.00 | 96 | 1034.0 |
| 20260503081413 | 54 | 288 | 0.9 | 1.7 | 0.00 | 0.00 | 0.00 | 95 | 1034.0 |
| 20260503080645 | 54 | 288 | 0.0 | 1.7 | 0.00 | 0.00 | 0.00 | 96 | 1034.0 |
| 20260503080140 | 54 | 288 | 0.9 | 1.7 | 0.00 | 0.00 | 0.00 | 95 | 1034.0 |
| 20260503072848 | 54 | 288 | 0.9 | 1.7 | 0.00 | 0.00 | 0.00 | 95 | 1033.8 |
| 20260503072338 | 54 | 288 | 0.9 | 1.7 | 0.00 | 0.00 | 0.00 | 95 | 1033.8 |
| 20260503071835 | 54 | 288 | 0.0 | 0.9 | 0.00 | 0.00 | 0.00 | 95 | 1033.7 |
| 20260503071333 | 54 | 288 | 0.0 | 0.9 | 0.00 | 0.00 | 0.00 | 95 | 1033.6 |
| 20260503070833 | 54 | 288 | 0.0 | 0.9 | 0.00 | 0.00 | 0.00 | 95 | 1033.6 |
| 20260503070606 | 55 | 288 | 0.9 | 0.9 | 0.00 | 0.00 | 0.00 | 95 | 1033.6 |
| 20260503060219 | 57 | 37 | 0.9 | 1.7 | 0.00 | 0.00 | 0.00 | 94 | 1033.2 |
| 20260503054713 | 57 | 114 | 0.9 | 0.9 | 0.00 | 0.00 | 0.00 | 94 | 1033.2 |
| 20260503054213 | 58 | 114 | 0.0 | 0.9 | 0.00 | 0.00 | 0.00 | 93 | 1033.2 |
| 20260503053714 | 58 | 114 | 0.0 | 1.7 | 0.00 | 0.00 | 0.00 | 93 | 1033.3 |
| 20260503053208 | 58 | 114 | 0.9 | 1.7 | 0.00 | 0.00 | 0.00 | 92 | 1033.2 |
| 20260503052937 | 58 | 114 | 0.0 | 0.9 | 0.00 | 0.00 | 0.00 | 92 | 1033.1 |
| 20260503052154 | 59 | 114 | 0.0 | 1.7 | 0.00 | 0.00 | 0.00 | 92 | 1033.1 |
| 20260503052150 | 59 | 114 | 0.9 | 1.7 | 0.00 | 0.00 | 0.00 | 91 | 1033.1 |
| 20260503051421 | 59 | 114 | 0.0 | 1.7 | 0.00 | 0.00 | 0.00 | 91 | 1033.0 |
| 20260503050640 | 60 | 114 | 0.9 | 2.6 | 0.00 | 0.00 | 0.00 | 91 | 1033.1 |
| 20260503050138 | 60 | 114 | 0.9 | 2.6 | 0.00 | 0.00 | 0.00 | 90 | 1033.2 |
| 20260503045634 | 60 | 114 | 0.9 | 6.1 | 0.00 | 0.00 | 0.00 | 90 | 1033.1 |
| 20260503045132 | 60 | 111 | 0.9 | 6.1 | 0.00 | 0.00 | 0.00 | 90 | 1033.1 |
| 20260503044628 | 61 | 132 | 0.0 | 1.7 | 0.00 | 0.00 | 0.00 | 90 | 1033.2 |
| 20260503044120 | 61 | 132 | 0.0 | 1.7 | 0.00 | 0.00 | 0.00 | 89 | 1033.2 |
| 20260503043620 | 61 | 132 | 0.9 | 2.6 | 0.00 | 0.00 | 0.00 | 89 | 1033.2 |
| 20260503043114 | 61 | 113 | 0.9 | 2.6 | 0.00 | 0.00 | 0.00 | 88 | 1033.2 |
| 20260503042850 | 62 | 125 | 0.9 | 4.3 | 0.00 | 0.00 | 0.00 | 88 | 1033.2 |
| 20260503042347 | 62 | 115 | 1.7 | 4.3 | 0.00 | 0.00 | 0.00 | 87 | 1033.2 |
| 20260503041607 | 62 | 134 | 1.7 | 3.5 | 0.00 | 0.00 | 0.00 | 87 | 1033.3 |
| 20260503041340 | 62 | 130 | 1.7 | 4.3 | 0.00 | 0.00 | 0.00 | 87 | 1033.2 |
| 20260503040609 | 62 | 121 | 1.7 | 6.1 | 0.00 | 0.00 | 0.00 | 87 | 1033.3 |
| 20260503040327 | 62 | 122 | 2.6 | 6.1 | 0.00 | 0.00 | 0.00 | 86 | 1033.2 |
| 20260503035555 | 62 | 117 | 2.6 | 5.2 | 0.00 | 0.00 | 0.00 | 87 | 1033.3 |
| 20260503035049 | 62 | 113 | 0.9 | 5.2 | 0.00 | 0.00 | 0.00 | 86 | 1033.3 |
| 20260503034552 | 63 | 133 | 2.6 | 5.2 | 0.00 | 0.00 | 0.00 | 86 | 1033.3 |
| 20260503034545 | 63 | 94 | 1.7 | 5.2 | 0.00 | 0.00 | 0.00 | 87 | 1033.4 |
| 20260503033540 | 63 | 154 | 0.9 | 3.5 | 0.00 | 0.00 | 0.00 | 85 | 1033.2 |
| 20260503033037 | 63 | 103 | 2.6 | 3.5 | 0.00 | 0.00 | 0.00 | 86 | 1033.2 |
| 20260503032532 | 63 | 110 | 1.7 | 6.1 | 0.00 | 0.00 | 0.00 | 85 | 1033.3 |
| 20260503032032 | 63 | 126 | 3.5 | 7.8 | 0.00 | 0.00 | 0.00 | 86 | 1033.2 |
| 20260503031530 | 63 | 98 | 3.5 | 7.8 | 0.00 | 0.00 | 0.00 | 86 | 1033.1 |
| 20260503031030 | 63 | 152 | 2.6 | 6.1 | 0.00 | 0.00 | 0.00 | 86 | 1033.1 |
| 20260503030526 | 63 | 107 | 3.5 | 6.1 | 0.00 | 0.00 | 0.00 | 85 | 1033.1 |
| 20260503030021 | 63 | 93 | 3.5 | 6.1 | 0.00 | 0.00 | 0.00 | 85 | 1033.2 |
| 20260503025523 | 63 | 38 | 0.9 | 7.8 | 0.00 | 0.00 | 0.00 | 84 | 1033.2 |
| 20260503025022 | 63 | 104 | 2.6 | 7.8 | 0.00 | 0.00 | 0.00 | 86 | 1033.2 |
| 20260503024521 | 63 | 46 | 2.6 | 7.0 | 0.00 | 0.00 | 0.00 | 85 | 1033.2 |
| 20260503024017 | 63 | 109 | 2.6 | 7.8 | 0.00 | 0.00 | 0.00 | 85 | 1033.2 |
| 20260503023513 | 64 | 28 | 4.3 | 7.8 | 0.00 | 0.00 | 0.00 | 84 | 1033.2 |
| 20260503023008 | 64 | 27 | 1.7 | 5.2 | 0.00 | 0.00 | 0.00 | 84 | 1033.2 |
| 20260503022508 | 64 | 85 | 2.6 | 4.3 | 0.00 | 0.00 | 0.00 | 85 | 1033.1 |
| 20260503022005 | 64 | 85 | 1.7 | 7.0 | 0.00 | 0.00 | 0.00 | 85 | 1033.3 |
| 20260503021459 | 64 | 167 | 3.5 | 7.0 | 0.00 | 0.00 | 0.00 | 84 | 1033.4 |
| 20260503021229 | 64 | 63 | 1.7 | 8.7 | 0.00 | 0.00 | 0.00 | 84 | 1033.4 |
| 20260503020455 | 64 | 120 | 5.2 | 8.7 | 0.00 | 0.00 | 0.00 | 84 | 1033.3 |
| 20260503015956 | 64 | 126 | 3.5 | 7.0 | 0.00 | 0.00 | 0.00 | 84 | 1033.4 |
| 20260503015451 | 64 | 106 | 5.2 | 7.8 | 0.00 | 0.00 | 0.00 | 84 | 1033.4 |
| 20260503014950 | 64 | 66 | 4.3 | 7.8 | 0.00 | 0.00 | 0.00 | 85 | 1033.3 |
| 20260503014451 | 64 | 93 | 2.6 | 6.1 | 0.00 | 0.00 | 0.00 | 85 | 1033.3 |
| 20260503013954 | 64 | 130 | 4.3 | 6.1 | 0.00 | 0.00 | 0.00 | 84 | 1033.4 |
| 20260503013446 | 64 | 56 | 1.7 | 7.0 | 0.00 | 0.00 | 0.00 | 86 | 1033.6 |
| 20260503012940 | 64 | 121 | 3.5 | 9.6 | 0.00 | 0.00 | 0.00 | 85 | 1033.6 |
| 20260503012439 | 64 | 126 | 3.5 | 9.6 | 0.00 | 0.00 | 0.00 | 85 | 1033.7 |
| 20260503011934 | 64 | 119 | 5.2 | 7.0 | 0.00 | 0.00 | 0.00 | 85 | 1033.6 |
| 20260503011434 | 64 | 99 | 3.5 | 8.7 | 0.00 | 0.00 | 0.00 | 86 | 1033.6 |
| 20260503011208 | 64 | 147 | 6.1 | 8.7 | 0.00 | 0.00 | 0.00 | 84 | 1033.7 |
| 20260503010425 | 64 | 124 | 4.3 | 7.8 | 0.00 | 0.00 | 0.00 | 84 | 1033.8 |
| 20260503005926 | 64 | 136 | 3.5 | 7.8 | 0.00 | 0.00 | 0.00 | 86 | 1033.8 |
| 20260503005422 | 64 | 113 | 3.5 | 7.8 | 0.00 | 0.00 | 0.00 | 86 | 1034.0 |
| 20260503004917 | 64 | 88 | 1.7 | 7.8 | 0.00 | 0.00 | 0.00 | 86 | 1034.0 |
| 20260503004415 | 64 | 117 | 4.3 | 9.6 | 0.00 | 0.00 | 0.00 | 85 | 1034.0 |
| 20260503003911 | 64 | 135 | 3.5 | 9.6 | 0.00 | 0.00 | 0.00 | 85 | 1034.1 |
| 20260503003426 | 64 | 130 | 2.6 | 7.8 | 0.00 | 0.00 | 0.00 | 85 | 1034.1 |
| 20260503003414 | 64 | 126 | 1.7 | 7.0 | 0.00 | 0.00 | 0.00 | 85 | 1034.1 |
| 20260503002639 | 64 | 127 | 5.2 | 7.8 | 0.00 | 0.00 | 0.00 | 84 | 1034.3 |
| 20260503001900 | 64 | 49 | 4.3 | 7.8 | 0.00 | 0.00 | 0.00 | 84 | 1034.3 |
| 20260503001400 | 64 | 117 | 2.6 | 7.8 | 0.00 | 0.00 | 0.00 | 85 | 1034.4 |
| 20260503000855 | 63 | 92 | 4.3 | 7.8 | 0.00 | 0.00 | 0.00 | 85 | 1034.5 |
| 20260503000355 | 63 | 46 | 1.7 | 9.6 | 0.00 | 0.00 | 0.00 | 85 | 1034.6 |
| 20260502235855 | 64 | 107 | 3.5 | 9.6 | 0.00 | 0.00 | 0.00 | 84 | 1034.6 |
| 20260502235357 | 64 | 102 | 3.5 | 7.0 | 0.00 | 0.00 | 0.00 | 85 | 1034.6 |
| 20260502234852 | 64 | 153 | 4.3 | 7.0 | 0.00 | 0.00 | 0.00 | 84 | 1034.7 |
| 20260502234351 | 64 | 36 | 2.6 | 7.8 | 0.00 | 0.00 | 0.00 | 85 | 1034.8 |
| 20260502233851 | 63 | 106 | 1.7 | 7.8 | 0.00 | 0.00 | 0.00 | 84 | 1034.9 |
| 20260502233351 | 63 | 92 | 3.5 | 7.0 | 0.00 | 0.00 | 0.00 | 84 | 1034.9 |
| 20260502232848 | 63 | 26 | 3.5 | 7.0 | 0.00 | 0.00 | 0.00 | 85 | 1034.9 |
| 20260502232346 | 63 | 107 | 2.6 | 7.0 | 0.00 | 0.00 | 0.00 | 85 | 1034.9 |
| 20260502231842 | 63 | 55 | 3.5 | 9.6 | 0.00 | 0.00 | 0.00 | 85 | 1034.9 |
| 20260502231338 | 63 | 148 | 5.2 | 9.6 | 0.00 | 0.00 | 0.00 | 85 | 1035.0 |
| 20260502230839 | 63 | 117 | 4.3 | 7.0 | 0.00 | 0.00 | 0.00 | 85 | 1034.9 |
| 20260502230334 | 63 | 81 | 3.5 | 8.7 | 0.00 | 0.00 | 0.00 | 85 | 1035.0 |
| 20260502225837 | 62 | 107 | 4.3 | 8.7 | 0.00 | 0.00 | 0.00 | 86 | 1035.1 |
| 20260502225330 | 62 | 124 | 4.3 | 8.7 | 0.00 | 0.00 | 0.00 | 86 | 1035.1 |
| 20260502224826 | 62 | 88 | 3.5 | 7.8 | 0.00 | 0.00 | 0.00 | 86 | 1035.0 |
| 20260502224601 | 62 | 107 | 3.5 | 7.0 | 0.00 | 0.00 | 0.00 | 86 | 1035.1 |
| 20260502223823 | 62 | 123 | 3.5 | 7.0 | 0.00 | 0.00 | 0.00 | 86 | 1035.2 |
| 20260502223320 | 62 | 119 | 3.5 | 7.0 | 0.00 | 0.00 | 0.00 | 87 | 1035.3 |
| 20260502222818 | 62 | 122 | 3.5 | 7.0 | 0.00 | 0.00 | 0.00 | 88 | 1035.2 |
| 20260502222314 | 62 | 161 | 2.6 | 7.0 | 0.00 | 0.00 | 0.00 | 89 | 1035.3 |
| 20260502221814 | 61 | 167 | 2.6 | 8.7 | 0.00 | 0.00 | 0.00 | 88 | 1035.3 |
| 20260502221543 | 61 | 100 | 5.2 | 8.7 | 0.00 | 0.00 | 0.00 | 89 | 1035.3 |
| 20260502220812 | 61 | 104 | 5.2 | 7.8 | 0.00 | 0.00 | 0.00 | 90 | 1035.2 |
| 20260502220308 | 60 | 107 | 5.2 | 7.8 | 0.00 | 0.00 | 0.00 | 91 | 1035.3 |
| 20260502215807 | 60 | 117 | 5.2 | 7.8 | 0.00 | 0.00 | 0.00 | 92 | 1035.2 |
| 20260502215304 | 60 | 100 | 3.5 | 6.1 | 0.00 | 0.00 | 0.00 | 95 | 1035.2 |
| 20260502214802 | 59 | 116 | 2.6 | 4.3 | 0.00 | 0.00 | 0.00 | 95 | 1035.2 |
| 20260502214257 | 59 | 153 | 2.6 | 4.3 | 0.00 | 0.00 | 0.00 | 95 | 1035.1 |
| 20260502213756 | 58 | 149 | 1.7 | 5.2 | 0.00 | 0.00 | 0.00 | 95 | 1035.2 |
| 20260502213257 | 58 | 127 | 2.6 | 5.2 | 0.00 | 0.00 | 0.00 | 96 | 1035.2 |
| 20260502212743 | 58 | 167 | 2.6 | 4.3 | 0.00 | 0.00 | 0.00 | 96 | 1035.2 |
| 20260502212241 | 57 | 140 | 1.7 | 3.5 | 0.00 | 0.00 | 0.00 | 97 | 1035.3 |
| 20260502211740 | 57 | 140 | 1.7 | 4.3 | 0.00 | 0.00 | 0.00 | 97 | 1035.2 |
| 20260502211234 | 57 | 143 | 1.7 | 4.3 | 0.00 | 0.00 | 0.00 | 98 | 1035.2 |
| 20260502211013 | 56 | 196 | 0.9 | 2.6 | 0.00 | 0.00 | 0.00 | 98 | 1035.1 |
| 20260502210502 | 56 | 196 | 1.7 | 2.6 | 0.00 | 0.00 | 0.00 | 98 | 1035.2 |
| 20260502205728 | 56 | 196 | 0.9 | 2.6 | 0.00 | 0.00 | 0.00 | 98 | 1035.1 |
| 20260502205222 | 56 | 133 | 0.9 | 1.7 | 0.00 | 0.00 | 0.00 | 99 | 1035.2 |